Location: Boston
(42.3567°S, 71.0569°W)
Time: 07:18:20
(UTC-04:00)

ISS - Visible Passes

Search period start: 21 May 2024 00:00
Search period end: 31 May 2024 00:00
Orbit: 410 x 414 km, 51.6° (Epoch: 21 May)

Date Brightness Start Highest point End Pass type
(mag) Time Alt. Az. Time Alt. Az. Time Alt. Az.
21 May -3.3 06:24:12 39° SW 06:24:36 41° SSW 06:27:52 10° SE visible
22 May -1.5 05:36:36 22° SE 05:36:36 22° SE 05:37:57 10° SE visible
22 May -2.1 07:09:25 12° WSW 07:11:42 20° SSW 07:14:20 10° SE visible
23 May -2.3 06:21:39 25° SSW 06:21:39 25° SSW 06:24:21 10° SE visible
24 May -1.0 05:33:45 14° SE 05:33:45 14° SE 05:34:23 10° SE visible
24 May -1.8 07:06:33 11° SW 07:08:38 17° S 07:10:58 10° SE visible
25 May -1.8 06:18:33 18° S 06:18:33 18° S 06:20:46 10° SE visible
26 May -0.7 05:30:27 11° SE 05:30:27 11° SE 05:30:36 10° SE visible
26 May -1.7 07:03:15 11° SW 07:05:25 17° S 07:07:47 10° SE visible
27 May -1.6 06:15:04 17° S 06:15:04 17° S 06:17:14 10° SE visible
28 May -1.9 06:59:38 12° SSW 07:01:55 22° SSE 07:04:38 10° ESE visible
29 May -1.7 06:11:21 18° S 06:11:23 18° S 06:13:51 10° SE visible
30 May -0.5 05:23:03 10° SE 05:23:03 10° SE 05:23:06 10° SE visible
30 May -2.5 06:55:50 15° SW 06:58:09 32° SSE 07:01:14 10° E visible
